Regional Weather Roundup
Issued by NWS Sioux Falls, SD

Home | Current Version | Previous Version | Text Only | Print | Product List | Glossary Off
Versions: 1 2 3 4 5 6 7 8 9 10 11 12 13 14 15 16 17 18 19 20 21 22 23 24 25 26 27 28 29 30 31 32 33 34 35 36 37 38 39 40 41 42 43 44 45 46 47 48 49 50

743
ASUS43 KFSD 282202
RWRFSD

WEATHER ROUNDUP FOR SE SOUTH DAKOTA/SW MINNESOTA/NW IOWA
NATIONAL WEATHER SERVICE SIOUX FALLS SD
500 PM CDT WED JUN 28 2017

NOTE: "FAIR" INDICATES FEW OR NO CLOUDS BELOW 12,000 FEET WITH NO
SIGNIFICANT WEATHER AND OR OBSTRUCTIONS TO VISIBILITY.


SDZ038>040-050-052>070-282300-
SOUTHEAST SOUTH DAKOTA

CITY           SKY/WX    TMP DP  RH WIND       PRES   REMARKS
BROOKINGS      SUNNY     83  62  49 NW18      29.62R
CHAMBERLAIN    MOSUNNY   86  55  33 N12       29.67F
HURON          SUNNY     88  51  28 NW18      29.62S
MADISON        FAIR      81  59  47 NW17G25   29.63F
MITCHELL       SUNNY     88  54  31 NW18G26   29.63S
SIOUX FALLS    MOSUNNY   85  65  51 W10       29.61F
WINNER         FAIR      89  51  27 NW10G21   29.70S
YANKTON        MOSUNNY   87  61  41 W14       29.65S
$$

MNZ071-072-080-081-089-090-097-098-282300-
SOUTHWEST MINNESOTA

CITY           SKY/WX    TMP DP  RH WIND       PRES   REMARKS
FAIRMONT       MOSUNNY   84  65  52 W18       29.58F
JACKSON        MOSUNNY   81  63  54 W14G21    29.62S
MARSHALL       PTSUNNY   83  64  52 NW20      29.57S
MONTEVIDEO     MOSUNNY   82  64  54 N13G18    29.57S
PIPESTONE      SUNNY     84  61  45 NW14      29.62S
REDWOOD FALLS  MOSUNNY   84  62  47 W16G24    29.55R
TRACY          SUNNY     83  67  58 W8G16     29.59S
WINDOM         SUNNY     82  64  54 W16G23    29.59F
WORTHINGTON    PTSUNNY   80  64  58 W16G22    29.63S
$$

IAZ001>003-012>014-020>022-031-032-NEZ013-014-SDZ071-282300-
NORTHWEST IOWA

CITY           SKY/WX    TMP DP  RH WIND       PRES   REMARKS
CHEROKEE       SUNNY     85  62  44 W14       29.62F
DENISON        SUNNY     86  68  54 W15G22    29.64F
ESTHERVILLE    MOSUNNY   82  64  54 W13G22    29.60F
LE MARS        SUNNY     86  63  45 W12       29.64S
ORANGE CITY    MOSUNNY   84  64  51 NW12      29.64S
SHELDON        SUNNY     84  64  51 W15       29.62S
SIOUX CITY     SUNNY     89  65  44 W10       29.62F
SPENCER        SUNNY     86  63  45 W15       29.62S
STORM LAKE     SUNNY     84  68  58 W12G20    29.63F
$$

ABBREVIATIONS USED IN REMARKS
   TC - TEMPERATURE IN CELSIUS
  WCI - WIND CHILL INDEX
   HX - HEAT INDEX
  VSB - VISIBILITY





USA.gov is the U.S. government's official web portal to all federal, state and local government web resources and services.